"2010-03-02 00:00:00",1725399,3.364,73.8,10.51,1.154,6.066,101.6938,3.621,4.948,59.35,0,110.1,13.4,4.39,35.8
"2010-03-02 00:00:30",1725400,3.359,94.7,11.16,1.106,5.993,101.6938,3.621,4.953,59.39,0,110.1,13.4,4.39,56.7
"2010-03-02 00:01:00",1725401,1.107,94,9.61,0.772,2.256,101.6785,3.582,4.694,59.63,0,110.1,13.4,4.35,56.0
"2010-03-02 00:01:30",1725402,1.128,70.27,12.87,0.875,2.468,101.6599,3.535,4.789,60.88,0,110.1,13.41,4.30,32.3
"2010-03-02 00:02:00",1725403,1.263,99,16.09,1.132,2.627,101.6525,3.516,4.637,61.14,0,110.1,13.41,4.28,61.0
"2010-03-02 00:02:30",1725404,1.515,94.5,13.99,1.108,2.824,101.6345,3.47,4.723,61.24,0,110.1,13.41,4.23,56.5
"2010-03-02 00:03:00",1725405,1.989,117.9,11.12,1.233,2.404,101.6263,3.449,4.565,61.08,0,110.1,13.41,4.21,79.9
"2010-03-02 00:03:30",1725406,2.157,114,15.63,1.397,3.959,101.626,3.448,4.684,62.15,0,110.1,13.41,4.21,76.0
"2010-03-02 00:04:00",1725407,1.898,80.6,10.64,1.223,4.746,101.6144,3.419,4.684,62.29,0,110.1,13.41,4.18,42.6
"2010-03-02 00:04:30",1725408,2.695,72.54,8.28,1.287,5.127,101.5921,3.362,4.702,62.14,0,110.1,13.41,4.13,34.5
"2010-03-02 00:05:00",1725409,2.089,71.57,14.64,1.077,3.709,101.5921,3.362,4.511,61.72,0,110.1,13.41,4.13,33.6
"2010-03-02 00:05:30",1725410,2.15,56.72,12.9,1.418,3.64,101.5921,3.362,4.53,61.27,0,110.1,13.41,4.13,18.7
"2010-03-02 00:06:00",1725411,1.284,52.35,10.23,0.753,1.597,101.5921,3.362,4.542,61.19,0,110,13.41,4.13,14.3
"2010-03-02 00:06:30",1725412,2.71,71.63,8.91,1.357,3.676,101.5921,3.362,4.553,61.32,0,110.1,13.41,4.13,33.6
"2010-03-02 00:07:00",1725413,2.115,52.2,15.67,1.292,3.707,101.5887,3.353,4.489,61.48,0,110.1,13.41,4.12,14.2
"2010-03-02 00:07:30",1725414,1.257,44.79,6.604,0.903,2.968,101.5842,3.342,4.596,61.7,0,110,13.41,4.11,6.8
"2010-03-02 00:08:00",1725415,2.478,84.6,27.93,1.176,5.545,101.567,3.298,4.594,61.57,0,110,13.41,4.06,46.6
"2010-03-02 00:08:30",1725416,2.987,87.8,14.3,1.304,5.193,101.5583,3.275,4.579,61.44,0,110,13.41,4.04,49.8
"2010-03-02 00:09:00",1725417,1.004,78.01,7.882,0.167,1.808,101.5583,3.275,4.386,61.05,0,110,13.44,4.04,40.0
"2010-03-02 00:09:30",1725418,1.187,85.2,13.36,1.006,2.564,101.5289,3.201,4.52,61.48,0,110,13.41,3.96,47.2
"2010-03-02 00:10:00",1725419,1.948,73.96,9.52,1.073,2.851,101.5244,3.189,4.34,61.7,0,110,13.41,3.95,36.0
"2010-03-02 00:10:30",1725420,2.453,79.74,7.464,1.074,3.378,101.5227,3.185,4.455,61.99,0,110.1,13.41,3.95,41.7
"2010-03-02 00:11:00",1725421,2.66,82.5,9.27,1.173,4.95,101.5134,3.161,4.511,62.2,0,110,13.41,3.92,44.5
"2010-03-02 00:11:30",1725422,2.459,84.2,5.704,1.237,4.671,101.4976,3.121,4.337,62.22,0,110,13.41,3.88,46.2
"2010-03-02 00:12:00",1725423,1.557,93.2,7.6,0.46,2.906,101.4911,3.104,4.443,62.57,0,110,13.45,3.87,55.2
"2010-03-02 00:12:30",1725424,2.414,104.6,7.414,1.298,3.509,101.4928,3.108,4.271,62.65,0,110,13.41,3.87,66.6
"2010-03-02 00:13:00",1725425,2.427,102.6,16.47,1.244,3.873,101.4939,3.111,4.321,63.2,0,110,13.41,3.87,64.6
"2010-03-02 00:13:30",1725426,1.9,87.7,9.89,1.106,3.665,101.4962,3.117,4.382,63.52,0,110,13.42,3.88,49.7
"2010-03-02 00:14:00",1725427,2.679,56.59,9.34,1.196,4.212,101.5,3.127,4.336,63.26,0,110,13.42,3.89,18.6
"2010-03-02 00:14:30",1725428,2.78,70.19,20.35,1.272,5.179,101.5023,3.133,4.36,63.11,0,110,13.42,3.90,32.2
"2010-03-02 00:15:00",1725429,1.887,78.91,17.78,1.303,4.083,101.4933,3.11,4.285,63.03,0,110,13.42,3.87,40.9
"2010-03-02 00:15:30",1725430,1.003,101.3,10.93,0.064,2.143,101.4829,3.083,4.184,62.92,0,110,13.45,3.85,63.3
"2010-03-02 00:16:00",1725431,2.141,70.06,8.94,1.23,3.761,101.4816,3.08,4.289,63.2,0,110,13.42,3.84,32.1
"2010-03-02 00:16:30",1725432,1.489,55.81,4.87,0.964,2.848,101.487,3.094,4.292,63.32,0,110,13.42,3.86,17.8
"2010-03-02 00:17:00",1725433,1.615,62.11,9.88,1.217,3.281,101.489,3.099,4.145,63.28,0,110,13.42,3.86,24.1
"2010-03-02 00:17:30",1725434,1.532,82.3,15.46,1.232,4.182,101.4819,3.081,4.311,63.57,0,110,13.42,3.84,44.3
"2010-03-02 00:18:00",1725435,2.369,78.14,11.6,1.472,4.461,101.4738,3.06,4.273,63.56,0,110,13.42,3.82,40.1
"2010-03-02 00:18:30",1725436,2.708,63.94,14.6,1.234,5.188,101.4588,3.022,4.301,63.37,0,110,13.42,3.78,25.9
"2010-03-02 00:19:00",1725437,2.204,62.6,22.67,1.391,4.067,101.4571,3.017,4.292,63.03,0,110,13.42,3.78,24.6
"2010-03-02 00:19:30",1725438,1.349,86.1,6.311,0.21,2.118,101.4571,3.017,4.085,62.89,0,110,13.46,3.78,48.1
"2010-03-02 00:20:00",1725439,1.366,85.8,5.084,0.095,2.244,101.4571,3.017,4.118,63.15,0,110,13.46,3.78,47.8
"2010-03-02 00:20:30",1725440,2.51,87.6,7.875,1.324,4.307,101.4512,3.002,4.203,63.38,0,110,13.43,3.76,49.6
"2010-03-02 00:21:00",1725441,2.186,75.82,10.99,1.248,3.678,101.4374,2.967,4.134,63.43,0,110,13.43,3.73,37.8
"2010-03-02 00:21:30",1725442,2.86,82.9,7.888,1.43,5.403,101.4258,2.937,4.249,63.63,0,110,13.43,3.70,44.9
"2010-03-02 00:22:00",1725443,3.213,101.4,11.31,1.317,5.331,101.4232,2.931,4.231,63.72,0,110,13.43,3.69,63.4
"2010-03-02 00:22:30",1725444,1.814,101,10.51,1.16,3.543,101.4232,2.931,4.111,63.76,0,110,13.43,3.69,63.0
"2010-03-02 00:23:00",1725445,1.303,111.8,5.299,0.134,1.729,101.4187,2.919,4.013,63.8,0,110,13.46,3.68,73.8
"2010-03-02 00:23:30",1725446,1.611,112.5,4.375,0.082,1.729,101.395,2.859,3.997,63.93,0,110,13.46,3.62,74.5
"2010-03-02 00:24:00",1725447,3.376,115.8,7.232,1.134,5.602,101.3894,2.844,4.193,64.2,0,110,13.42,3.61,77.8
"2010-03-02 00:24:30",1725448,2.968,95.7,10.66,1.045,5.642,101.3891,2.844,4.137,64.24,0,110,13.43,3.61,57.7
"2010-03-02 00:25:00",1725449,1.822,99.2,7.421,1.111,3.44,101.3778,2.815,4.085,64.3,0,110,13.42,3.58,61.2
"2010-03-02 00:25:30",1725450,3.191,98,8.12,1.064,6.108,101.3575,2.763,4.126,64.39,0,110,13.42,3.52,60.0
"2010-03-02 00:26:00",1725451,2.467,85.6,5.126,1.058,3.527,101.3572,2.762,3.975,64.34,0,110,13.42,3.52,47.6
"2010-03-02 00:26:30",1725452,1.632,98.7,8.69,0.141,1.889,101.3561,2.76,3.88,64.37,0,109.9,13.46,3.52,60.7
"2010-03-02 00:27:00",1725453,1.442,96.7,5.185,0.137,2.114,101.3369,2.711,3.879,64.44,0,109.9,13.46,3.47,58.7
"2010-03-02 00:27:30",1725454,2.698,91.8,6.822,1.339,4.349,101.3325,2.699,3.995,64.66,0,109.9,13.43,3.46,53.8
"2010-03-02 00:28:00",1725455,3.355,93.8,6.095,1.134,6.457,101.3356,2.707,4.084,64.85,0,109.9,13.43,3.47,55.8
"2010-03-02 00:28:30",1725456,2.749,92.4,5.449,1.219,5.654,101.3303,2.694,4.075,64.86,0,109.9,13.43,3.46,54.4
"2010-03-02 00:29:00",1725457,3.16,96.1,6.149,1.144,6.002,101.3163,2.658,4.021,64.87,0,109.9,13.44,3.42,58.1
"2010-03-02 00:29:30",1725458,1.602,88.9,5.699,0.825,2.928,101.3172,2.66,3.767,64.73,0,109.9,13.44,3.42,50.9
"2010-03-02 00:30:00",1725459,1.171,98.9,2.546,0.071,1.86,101.3189,2.665,3.748,64.78,0,109.9,13.47,3.43,60.9
"2010-03-02 00:30:30",1725460,1.302,111.8,6.554,0.061,1.608,101.3031,2.624,3.74,64.82,0,109.9,13.47,3.39,73.8
"2010-03-02 00:31:00",1725461,2.005,107.5,7.141,1.129,3.892,101.2881,2.586,3.905,65.11,0,109.9,13.44,3.35,69.5
"2010-03-02 00:31:30",1725462,3.378,131,10.1,1.097,6.008,101.2881,2.586,3.942,65.19,0,109.9,13.44,3.35,93.0
"2010-03-02 00:32:00",1725463,3.289,134.7,8.3,1.236,5.867,101.2816,2.569,3.983,65.37,0,109.9,13.45,3.33,96.7
"2010-03-02 00:32:30",1725464,3.497,136.3,5.177,1.133,5.783,101.2607,2.516,3.919,65.5,0,109.9,13.45,3.28,98.3
"2010-03-02 00:33:00",1725465,2.011,128.5,5.629,1.075,2.845,101.2542,2.5,3.718,65.45,0,109.9,13.45,3.26,90.5
"2010-03-02 00:33:30",1725466,1.564,125.1,1.715,0.109,1.76,101.2503,2.489,3.607,65.53,0,109.9,13.48,3.25,87.1
"2010-03-02 00:34:00",1725467,1.461,119.5,5.83,0.081,2.007,101.2243,2.423,3.593,65.6,0,109.9,13.48,3.18,81.5
"2010-03-02 00:34:30",1725468,2.651,115.3,3.481,1.315,4.873,101.2203,2.413,3.787,65.87,0,109.9,13.45,3.17,77.3
"2010-03-02 00:35:00",1725469,3.264,118.5,6.917,1.236,5.466,101.2189,2.409,3.753,65.87,0,109.9,13.45,3.17,80.5
"2010-03-02 00:35:30",1725470,3.089,118.2,6.29,1.24,5.899,101.1952,2.349,3.789,66,0,109.9,13.45,3.11,80.2
"2010-03-02 00:36:00",1725471,3.432,109.1,8.41,0.997,6.274,101.1881,2.331,3.736,66.05,0,109.9,13.45,3.09,71.1
"2010-03-02 00:36:30",1725472,1.671,99.8,4.079,0.602,2.629,101.1896,2.335,3.486,65.91,0,109.9,13.45,3.09,61.8
"2010-03-02 00:37:00",1725473,1.196,103,8.17,0.169,2.006,101.169,2.282,3.464,65.98,0,109.9,13.49,3.04,65.0
"2010-03-02 00:37:30",1725474,1.041,109.9,6.255,0.092,1.944,101.1628,2.266,3.43,66.08,0,109.9,13.49,3.03,71.9
"2010-03-02 00:38:00",1725475,2.662,104.9,5.851,1.302,5.524,101.1677,2.279,3.56,66.31,0,109.9,13.46,3.04,66.9
"2010-03-02 00:38:30",1725476,2.653,108.1,6.64,1.179,5.537,101.1556,2.248,3.619,66.48,0,109.9,13.46,3.01,70.1
"2010-03-02 00:39:00",1725477,3.653,114.5,5.062,0.505,7.023,101.1423,2.214,3.559,66.51,0,109.9,13.46,2.97,76.5
"2010-03-02 00:39:30",1725478,2.425,111.3,6.071,1.259,4.879,101.1475,2.227,3.592,66.61,0,109.9,13.46,2.99,73.3
"2010-03-02 00:40:00",1725479,1.868,120.3,5.429,1.157,2.819,101.1356,2.197,3.368,66.47,0,109.8,13.46,2.96,82.3
"2010-03-02 00:40:30",1725480,1.221,124.7,1.863,0.053,1.434,101.1182,2.152,3.288,66.45,0,109.8,13.49,2.91,86.7
"2010-03-02 00:41:00",1725481,1.871,129.7,5.812,1.074,3.003,101.1187,2.154,3.28,66.53,0,109.8,13.46,2.91,91.7
"2010-03-02 00:41:30",1725482,1.47,126.3,4.534,0.891,2.918,101.0953,2.094,3.329,66.69,0,109.8,13.45,2.85,88.3
"2010-03-02 00:42:00",1725483,2.863,129.6,5.866,1.121,5.854,101.0851,2.068,3.42,66.88,0,109.8,13.46,2.83,91.6
"2010-03-02 00:42:30",1725484,2.36,127,6.268,1.193,5.463,101.0848,2.067,3.411,66.95,0,109.8,13.46,2.83,89.0
"2010-03-02 00:43:00",1725485,2.782,126.4,6.971,1.131,5.599,101.0611,2.007,3.351,66.98,0,109.8,13.46,2.77,88.4
"2010-03-02 00:43:30",1725486,1.305,130.1,5.3,1.036,3.067,101.0512,1.981,3.251,66.97,0,109.8,13.46,2.74,92.1
"2010-03-02 00:44:00",1725487,0.863,125.5,3.542,0.037,1.514,101.0475,1.972,3.123,66.93,0,109.8,13.49,2.73,87.5
"2010-03-02 00:44:30",1725488,0.827,116.7,3.885,0.034,1.785,101.0286,1.924,3.107,66.96,0,109.8,13.49,2.68,78.7
"2010-03-02 00:45:00",1725489,1.794,116.5,5.889,1.271,3.822,101.0173,1.895,3.114,67.05,0,109.8,13.47,2.65,78.5
"2010-03-02 00:45:30",1725490,1.516,124.8,9.49,1.134,3.746,101.0119,1.881,3.192,67.23,0,109.8,13.48,2.64,86.8
"2010-03-02 00:46:00",1725491,1.195,130.3,5.747,1.074,3.732,100.9854,1.813,3.177,67.25,0,109.8,13.48,2.57,92.3
"2010-03-02 00:46:30",1725492,1.944,137.4,6.698,1.267,5.101,100.9834,1.808,3.214,67.41,0,109.8,13.48,2.57,99.4
"2010-03-02 00:47:00",1725493,2.067,133.6,7.684,1.25,4.804,100.9616,1.753,3.166,67.62,0,109.8,13.48,2.51,95.6
"2010-03-02 00:47:30",1725494,0.454,123.6,2.109,0.057,1.356,100.9529,1.731,2.925,67.6,0,109.8,13.51,2.49,85.6
"2010-03-02 00:48:00",1725495,0.38,114.9,3.852,0.051,1.04,100.9419,1.703,2.884,67.83,0,109.8,13.51,2.46,76.9
"2010-03-02 00:48:30",1725496,0.464,101.3,5.197,0.033,1.507,100.9301,1.672,2.854,68.01,0,109.8,13.52,2.43,63.3
"2010-03-02 00:49:00",1725497,0.398,90.7,5.876,0.054,2.23,100.9372,1.691,2.811,68.15,0,109.8,13.52,2.45,52.7
"2010-03-02 00:49:30",1725498,1.043,88.4,5.982,1.092,4.026,100.9396,1.697,2.937,68.39,0,109.8,13.49,2.45,50.4
"2010-03-02 00:50:00",1725499,1.324,86.2,4.769,1.245,4.601,100.9238,1.656,2.829,68.31,0,109.8,13.49,2.41,48.2
"2010-03-02 00:50:30",1725500,2.03,89.3,7.469,1.231,5.373,100.9156,1.635,2.862,68.36,0,109.8,13.49,2.39,51.3
"2010-03-02 00:51:00",1725501,2.22,94.7,6.553,1.213,6.728,100.9156,1.635,3.01,68.58,0,109.8,13.49,2.39,56.7
"2010-03-02 00:51:30",1725502,1.598,100.2,6.284,1.178,4.601,100.8995,1.594,2.84,68.51,0,109.8,13.49,2.35,62.2
"2010-03-02 00:52:00",1725503,0.688,107.3,2.85,0.075,1.551,100.882,1.55,2.673,68.45,0,109.8,13.52,2.31,69.3
"2010-03-02 00:52:30",1725504,0.652,107.6,2.932,0.08,1.415,100.882,1.55,2.655,68.58,0,109.8,13.53,2.31,69.6
"2010-03-02 00:53:00",1725505,0.702,112,3.632,0.03,1.694,100.8752,1.532,2.644,68.68,0,109.8,13.53,2.29,74.0
"2010-03-02 00:53:30",1725506,1.801,129.9,6.958,1.238,4.221,100.8525,1.475,2.772,68.94,0,109.8,13.5,2.23,91.9
"2010-03-02 00:54:00",1725507,0.925,135.8,4.755,0.645,2.767,100.848,1.463,2.655,68.97,0,109.7,13.5,2.22,97.8
"2010-03-02 00:54:30",1725508,2.196,152.4,8.26,1.165,5.515,100.8432,1.451,2.868,69.24,0,109.8,13.5,2.21,114.4
"2010-03-02 00:55:00",1725509,3.156,170.3,4.857,0.51,7.121,100.8158,1.381,2.833,69.33,0,109.7,13.5,2.14,132.3
"2010-03-02 00:55:30",1725510,0.985,146.2,9.83,0.671,2.237,100.8141,1.377,2.689,69.29,0,109.7,13.5,2.13,108.2
"2010-03-02 00:56:00",1725511,0.607,141.4,3.747,0.146,1.222,100.811,1.369,2.511,69.18,0,109.7,13.53,2.13,103.4
"2010-03-02 00:56:30",1725512,0.589,150.4,7.134,0.108,1.199,100.7878,1.31,2.48,69.36,0,109.7,13.53,2.07,112.4
"2010-03-02 00:57:00",1725513,1.623,137.7,7.864,1.235,3.522,100.7825,1.296,2.51,69.61,0,109.7,13.5,2.05,99.7
"2010-03-02 00:57:30",1725514,0.72,132.3,4.126,0.451,2.579,100.7726,1.271,2.549,69.92,0,109.7,13.5,2.03,94.3
"2010-03-02 00:58:00",1725515,1.997,134.3,5.611,1.268,4.557,100.7537,1.222,2.443,70.06,0,109.7,13.5,1.98,96.3
"2010-03-02 00:58:30",1725516,1.898,130.7,6.231,1.275,5.104,100.7611,1.241,2.621,70.45,0,109.7,13.5,2.00,92.7
"2010-03-02 00:59:00",1725517,2.37,125,6.922,1.189,5.806,100.7603,1.239,2.58,70.61,0,109.7,13.5,2.00,87.0
"2010-03-02 00:59:30",1725518,0.977,117.3,2.064,0.465,1.968,100.7385,1.184,2.391,70.52,0,109.7,13.5,1.94,79.3
"2010-03-02 01:00:00",1725519,0.884,123,3.443,0.061,1.46,100.74,1.187,2.291,70.52,0,109.7,13.53,1.94,85.0
"2010-03-02 01:00:30",1725520,0.865,124.8,2.155,0.072,1.457,100.7437,1.197,2.273,70.59,0,109.7,13.54,1.95,86.8
"2010-03-02 01:01:00",1725521,1.482,127.7,6.353,1.033,3.339,100.7233,1.145,2.412,70.81,0,109.7,13.51,1.90,89.7
"2010-03-02 01:01:30",1725522,1.285,129.1,5.14,1.046,3.076,100.7123,1.117,2.294,70.79,0,109.7,13.51,1.87,91.1
"2010-03-02 01:02:00",1725523,2.172,134.1,7.924,1.281,5.089,100.7126,1.118,2.445,70.99,0,109.7,13.51,1.87,96.1
"2010-03-02 01:02:30",1725524,2.392,135,6.72,1.219,5.656,100.7069,1.103,2.449,71.04,0,109.7,13.51,1.86,97.0
"2010-03-02 01:03:00",1725525,1.879,107.4,7.321,1.191,4.383,100.6815,1.038,2.267,70.99,0,109.7,13.52,1.79,69.4
"2010-03-02 01:03:30",1725526,1.066,100.8,5.682,0.756,3.153,100.6787,1.031,2.297,71.11,0,109.7,13.52,1.79,62.8
"2010-03-02 01:04:00",1725527,0.792,95.9,2.546,0.074,1.88,100.6781,1.03,2.142,71.07,0,109.7,13.55,1.79,57.9
"2010-03-02 01:04:30",1725528,0.924,103.7,6.112,0.475,1.499,100.6659,0.999,2.121,71.15,0,109.7,13.52,1.75,65.7
"2010-03-02 01:05:00",1725529,1.44,101.2,5.357,1.073,3.704,100.6453,0.946,2.261,71.39,0,109.7,13.52,1.70,63.2
"2010-03-02 01:05:30",1725530,2.027,108.3,6.258,1.213,4.192,100.645,0.945,2.126,71.38,0,109.7,13.52,1.70,70.3
"2010-03-02 01:06:00",1725531,2.793,111.3,5.36,1.105,6.01,100.645,0.945,2.28,71.65,0,109.7,13.52,1.70,73.3
"2010-03-02 01:06:30",1725532,3.266,111.7,5.147,0.689,7.35,100.6422,0.938,2.351,71.78,0,109.7,13.52,1.69,73.7
"2010-03-02 01:07:00",1725533,1.518,107.2,6.999,1.053,4.087,100.6258,0.896,2.202,71.68,0,109.7,13.52,1.65,69.2
"2010-03-02 01:07:30",1725534,0.776,107.5,1.849,0.058,1.562,100.6148,0.868,2.019,71.58,0,109.7,13.56,1.62,69.5
"2010-03-02 01:08:00",1725535,0.702,113.6,1.878,0.03,1.451,100.6188,0.878,2.017,71.67,0,109.6,13.56,1.63,75.6
"2010-03-02 01:08:30",1725536,1.726,122.6,7.589,1.289,3.871,100.6253,0.895,2.057,71.77,0,109.7,13.53,1.65,84.6
"2010-03-02 01:09:00",1725537,1.77,124.3,7.795,1.277,4.232,100.6251,0.894,2.152,71.95,0,109.7,13.53,1.65,86.3
"2010-03-02 01:09:30",1725538,0.552,117.2,2.791,0.232,2.13,100.6039,0.84,1.972,71.84,0,109.7,13.53,1.60,79.2
"2010-03-02 01:10:00",1725539,1.893,122.4,5.539,1.256,5.177,100.6056,0.845,2.195,72.12,0,109.7,13.53,1.60,84.4
"2010-03-02 01:10:30",1725540,2.398,119,8.82,1.015,6.249,100.6062,0.846,2.212,72.22,0,109.6,13.54,1.60,81.0
"2010-03-02 01:11:00",1725541,1.526,107.6,8.92,1.235,4.028,100.6087,0.853,1.973,72.01,0,109.6,13.54,1.61,69.6
"2010-03-02 01:11:30",1725542,0.456,97.3,3.086,0.033,2.076,100.6053,0.844,1.923,72,0,109.6,13.57,1.60,59.3
"2010-03-02 01:12:00",1725543,0.494,88.8,3.971,0.05,2.006,100.5918,0.809,1.903,72.06,0,109.6,13.57,1.56,50.8
"2010-03-02 01:12:30",1725544,1.528,90.6,7.005,1.201,4.51,100.5773,0.773,1.98,72.2,0,109.7,13.54,1.53,52.6
"2010-03-02 01:13:00",1725545,1.075,91.3,5.025,1.065,4.23,100.577,0.772,2.028,72.33,0,109.7,13.54,1.53,53.3
"2010-03-02 01:13:30",1725546,1.026,97.6,4.474,1.044,3.244,100.577,0.772,1.965,72.32,0,109.7,13.54,1.53,59.6
"2010-03-02 01:14:00",1725547,1.426,98.4,5.699,1.201,4.188,100.5688,0.751,1.907,72.36,0,109.7,13.54,1.51,60.4
"2010-03-02 01:14:30",1725548,2.163,110.9,7.639,1.215,5.429,100.5442,0.688,2.08,72.6,0,109.6,13.54,1.44,72.9
"2010-03-02 01:15:00",1725549,2.026,117.5,6.992,1.194,4.968,100.5431,0.685,2.037,72.66,0,109.7,13.54,1.44,79.5
"2010-03-02 01:15:30",1725550,0.251,108.8,4.41,0.033,1.498,100.5431,0.685,1.811,72.48,0,109.6,13.57,1.44,70.8
"2010-03-02 01:16:00",1725551,0.183,118.5,2.302,0.036,0.786,100.5406,0.679,1.791,72.55,0,109.6,13.57,1.43,80.5
"2010-03-02 01:16:30",1725552,0.189,124.5,3.378,0.037,0.851,100.5264,0.643,1.784,72.59,0,109.7,13.57,1.40,86.5
"2010-03-02 01:17:00",1725553,1.361,128.3,8.65,1.248,3.351,100.5111,0.604,1.904,72.78,0,109.6,13.54,1.36,90.3
"2010-03-02 01:17:30",1725554,0.302,123,2.74,0.022,1.623,100.5094,0.599,1.836,72.78,0,109.6,13.58,1.35,85.0
"2010-03-02 01:18:00",1725555,0.322,123.5,5.437,0.03,1.679,100.5103,0.602,1.746,72.75,0,109.6,13.58,1.36,85.5
"2010-03-02 01:18:30",1725556,1.39,121.1,6.206,1.262,4.016,100.503,0.583,1.847,72.9,0,109.6,13.55,1.34,83.1
"2010-03-02 01:19:00",1725557,1.23,113,5.347,1.144,4.113,100.4835,0.533,1.87,72.99,0,109.6,13.55,1.29,75.0
"2010-03-02 01:19:30",1725558,2.038,107.2,8.82,1.145,5.402,100.4855,0.538,1.898,73.06,0,109.6,13.55,1.29,69.2
"2010-03-02 01:20:00",1725559,1.092,93.2,7.216,1.156,3.982,100.4883,0.546,1.716,72.95,0,109.6,13.55,1.30,55.2
"2010-03-02 01:20:30",1725560,0.396,84.1,1.063,0.032,1.969,100.4906,0.551,1.666,72.97,0,109.6,13.59,1.31,46.1
"2010-03-02 01:21:00",1725561,1.005,86.6,6.469,1.057,3.221,100.4846,0.536,1.753,73.12,0,109.6,13.55,1.29,48.6
"2010-03-02 01:21:30",1725562,0.861,83,7.27,1.029,2.627,100.4679,0.494,1.69,73.14,0,109.6,13.55,1.25,45.0
"2010-03-02 01:22:00",1725563,1.243,80.5,10.53,1.217,3.76,100.4654,0.487,1.723,73.2,0,109.6,13.56,1.24,42.5
"2010-03-02 01:22:30",1725564,1.027,70.68,6.63,1.173,2.802,100.468,0.494,1.61,73.14,0,109.6,13.56,1.25,32.7
"2010-03-02 01:23:00",1725565,1.019,72.74,8.43,1.185,3.589,100.4666,0.49,1.74,73.34,0,109.6,13.56,1.24,34.7
"2010-03-02 01:23:30",1725566,1.272,93.6,9.03,1.24,3.949,100.4584,0.469,1.65,73.32,0,109.6,13.56,1.22,55.6
"2010-03-02 01:24:00",1725567,1.388,118.3,12.32,1.234,4.045,100.442,0.427,1.721,73.49,0,109.6,13.56,1.18,80.3
"2010-03-02 01:24:30",1725568,0.356,62.76,34.9,0.288,1.656,100.4386,0.419,1.626,73.48,0,109.6,13.59,1.17,24.8
"2010-03-02 01:25:00",1725569,0.499,36.12,11.95,0.292,1.078,100.4408,0.425,1.532,73.45,0,109.6,13.59,1.18,358.1
"2010-03-02 01:25:30",1725570,0.06,85.2,22.26,0.123,1.423,100.4324,0.403,1.593,73.57,0,109.6,13.6,1.16,47.2
"2010-03-02 01:26:00",1725571,1.374,102,12.57,1.261,3.879,100.4179,0.366,1.582,73.62,0,109.6,13.57,1.12,64.0
"2010-03-02 01:26:30",1725572,0.988,122,18.23,1.206,3.344,100.4199,0.371,1.644,74.01,0,109.6,13.57,1.12,84.0
"2010-03-02 01:27:00",1725573,0.101,101.2,28.56,0.086,2.034,100.4375,0.416,1.528,74.34,0,109.6,13.61,1.17,63.2
"2010-03-02 01:27:30",1725574,2.313,56.36,7.798,1.165,5.665,100.4414,0.426,1.7,74.8,0,109.6,13.57,1.18,18.4
"2010-03-02 01:28:00",1725575,2.694,64.22,8.14,1.116,6.058,100.4426,0.429,1.701,74.86,0,109.6,13.57,1.18,26.2
"2010-03-02 01:28:30",1725576,2.279,70.66,5.505,1.208,4.841,100.4414,0.426,1.683,74.85,0,109.6,13.57,1.18,32.7
"2010-03-02 01:29:00",1725577,1.103,75.65,3.543,0.632,1.953,100.4414,0.426,1.479,74.55,0,109.6,13.57,1.18,37.7
"2010-03-02 01:29:30",1725578,1.514,80.4,3.885,0.924,2.319,100.4414,0.426,1.476,74.51,0,109.6,13.57,1.18,42.4
"2010-03-02 01:30:00",1725579,1.626,86.1,10.03,1.128,3.799,100.4414,0.426,1.665,74.66,0,109.6,13.57,1.18,48.1
"2010-03-02 01:30:30",1725580,1.124,82.7,5.554,0.962,2.757,100.4343,0.408,1.544,74.59,0,109.6,13.57,1.16,44.7
"2010-03-02 01:31:00",1725581,2.011,90,5.017,1.278,5.035,100.4247,0.383,1.608,74.73,0,109.6,13.57,1.14,52.0
"2010-03-02 01:31:30",1725582,2.155,80.9,5.608,1.137,5.545,100.4109,0.348,1.626,74.81,0,109.6,13.57,1.10,42.9
"2010-03-02 01:32:00",1725583,0.76,74.94,7.109,1.044,2.475,100.4097,0.345,1.458,74.65,0,109.6,13.57,1.10,36.9
"2010-03-02 01:32:30",1725584,0.79,65.74,17.14,1.122,3.12,100.4148,0.358,1.56,74.8,0,109.6,13.57,1.11,27.7
"2010-03-02 01:33:00",1725585,0.067,306.7,25.32,0.617,0.829,100.418,0.366,1.434,74.68,0,109.6,13.57,1.12,268.7
"2010-03-02 01:33:30",1725586,0.096,272.4,2.913,0.037,0.596,100.4154,0.36,1.414,74.68,0,109.6,13.6,1.11,234.4
"2010-03-02 01:34:00",1725587,0.064,270,3.744,0.1,1.81,100.3971,0.313,1.428,74.66,0,109.6,13.61,1.07,232.0
"2010-03-02 01:34:30",1725588,0.593,277.9,8.89,1.054,2.452,100.3962,0.311,1.402,74.64,0,109.6,13.58,1.06,239.9
"2010-03-02 01:35:00",1725589,1.094,315.4,18.65,1.248,3.459,100.3994,0.319,1.56,74.88,0,109.6,13.58,1.07,277.4
"2010-03-02 01:35:30",1725590,-0.083,34.68,26.21,0.03,1.304,100.4019,0.325,1.395,74.86,0,109.5,13.62,1.08,356.7
"2010-03-02 01:36:00",1725591,-0.011,78.78,7.322,0.062,1.859,100.4031,0.328,1.379,74.98,0,109.6,13.62,1.08,40.8
"2010-03-02 01:36:30",1725592,0.84,82.2,7.177,1.102,3.209,100.4039,0.33,1.489,75.27,0,109.5,13.58,1.08,44.2
"2010-03-02 01:37:00",1725593,2.352,93,5.504,1.158,5.664,100.4048,0.332,1.627,75.55,0,109.6,13.58,1.09,55.0
"2010-03-02 01:37:30",1725594,1.878,85.6,7.07,1.246,3.994,100.4068,0.338,1.409,75.4,0,109.5,13.58,1.09,47.6
"2010-03-02 01:38:00",1725595,1.373,86.6,5.423,0.994,2.919,100.4073,0.339,1.48,75.54,0,109.5,13.58,1.09,48.6
"2010-03-02 01:38:30",1725596,1.977,89.4,6.575,1.241,3.1,100.4076,0.34,1.364,75.47,0,109.5,13.58,1.09,51.4
"2010-03-02 01:39:00",1725597,1.208,78.91,5.976,0.624,2.425,100.4076,0.34,1.509,75.69,0,109.5,13.59,1.09,40.9
"2010-03-02 01:39:30",1725598,1.801,83.4,7.029,1.239,3.244,100.4036,0.33,1.353,75.52,0,109.5,13.59,1.08,45.4
"2010-03-02 01:40:00",1725599,1.012,82.9,4.534,0.67,2.151,100.3954,0.309,1.387,75.56,0,109.5,13.59,1.06,44.9
"2010-03-02 01:40:30",1725600,2.519,88.5,6.057,1.186,5.842,100.3901,0.295,1.587,75.8,0,109.5,13.59,1.05,50.5
"2010-03-02 01:41:00",1725601,1.418,75.77,7.796,1.215,4.121,100.3801,0.27,1.501,75.72,0,109.5,13.59,1.02,37.8
"2010-03-02 01:41:30",1725602,0.363,63.77,3.039,0.064,1.685,100.3736,0.253,1.325,75.63,0,109.6,13.62,1.01,25.8
"2010-03-02 01:42:00",1725603,1.159,65.92,8.1,1.215,3.348,100.3736,0.253,1.454,75.77,0,109.6,13.59,1.01,27.9
"2010-03-02 01:42:30",1725604,0.722,56.92,8.21,1.092,3.071,100.3736,0.253,1.451,75.81,0,109.6,13.59,1.01,18.9
"2010-03-02 01:43:00",1725605,0.677,36.49,7.825,1.113,2.757,100.3736,0.253,1.367,75.75,0,109.5,13.6,1.01,358.5
"2010-03-02 01:43:30",1725606,0.408,18.83,6.207,0.943,1.521,100.3677,0.238,1.359,75.76,0,109.5,13.6,0.99,340.8
"2010-03-02 01:44:00",1725607,0.851,25.2,9.91,1.151,2.769,100.3578,0.213,1.386,75.79,0,109.5,13.6,0.97,347.2
"2010-03-02 01:44:30",1725608,0.067,36.62,4.688,0.05,0.693,100.3462,0.183,1.287,75.7,0,109.5,13.63,0.94,358.6
"2010-03-02 01:45:00",1725609,0.126,45.37,4.981,0.03,1.204,100.34,0.167,1.411,75.79,0,109.5,13.63,0.92,7.4
"2010-03-02 01:45:30",1725610,1.892,61.29,5.902,1.15,5.001,100.3397,0.166,1.536,75.89,0,109.6,13.6,0.92,23.3
"2010-03-02 01:46:00",1725611,0.349,58.27,9.35,0.778,2.748,100.3397,0.166,1.4,75.73,0,109.6,13.6,0.92,20.3
"2010-03-02 01:46:30",1725612,-0.022,66.98,7.319,0.044,2.4,100.3397,0.166,1.245,75.51,0,109.6,13.62,0.92,29.0
"2010-03-02 01:47:00",1725613,-0.085,68.66,9.73,0.002,1.857,100.3349,0.154,1.233,75.46,0,109.6,13.62,0.91,30.7
"2010-03-02 01:47:30",1725614,0.659,77.73,9.52,1.108,2.667,100.3261,0.132,1.235,75.43,0,109.6,13.59,0.88,39.7
"2010-03-02 01:48:00",1725615,1.077,74.71,6.968,1.204,3.192,100.3131,0.099,1.334,75.47,0,109.5,13.6,0.85,36.7
"2010-03-02 01:48:30",1725616,0.494,83,9.54,0.759,2.547,100.3083,0.086,1.322,75.45,0,109.5,13.6,0.84,45.0
"2010-03-02 01:49:00",1725617,0.932,88.7,10.54,1.077,2.712,100.3114,0.094,1.224,75.36,0,109.5,13.6,0.85,50.7